1522011600.07,27284,10.81,72560.0,-8.95,-43.35,-43.35,0,*5F
1522011601.32,27285,10.81,72562.0,-8.95,-43.35,-43.29,0,*53
1522011602.56,27286,10.81,72566.0,-8.95,-43.35,-43.35,0,*5D
1522011603.84,27287,10.81,72562.3,-8.95,-43.29,-43.29,0,*5C
1522011605.09,27288,10.81,72564.0,-8.99,-43.01,-43.15,0,*5A
1522011606.34,27289,10.81,72562.0,-8.97,-43.21,-43.21,0,*50
1522011607.6,27290,10.81,72560.5,-8.97,-43.21,-43.21,0,*58
1522011608.88,27291,10.81,72562.3,-8.99,-43.21,-43.21,0,*57
1522011610.09,27292,10.81,72562.0,-8.97,-43.41,-43.41,0,*5A
1522011611.31,27293,10.81,72560.0,-8.97,-43.35,-43.35,0,*5B
1522011612.54,27294,10.81,72554.5,-8.99,-43.15,-43.15,0,*52
1522011613.82,27295,10.81,72558.3,-8.99,-43.21,-43.21,0,*53
1522011615.05,27296,10.81,72558.3,-8.99,-43.15,-43.15,0,*50
1522011616.31,27297,10.81,72558.5,-8.99,-42.95,-43.01,0,*5D
1522011617.58,27298,10.81,72556.0,-8.97,-42.83,-42.95,0,*57
1522011618.87,27299,10.81,72558.8,-8.99,-42.83,-42.95,0,*58
1522011620.11,27300,10.81,72554.3,-8.97,-42.95,-43.01,0,*5C
1522011621.34,27301,10.81,72562.3,-8.97,-42.75,-42.83,0,*58
1522011622.61,27302,10.81,72560.3,-8.97,-42.83,-42.95,0,*55
1522011623.84,27303,10.81,72558.8,-8.97,-42.75,-42.83,0,*5A
1522011625.11,27304,10.81,72558.8,-8.97,-42.83,-42.95,0,*53
1522011626.37,27305,10.81,72558.5,-8.97,-42.69,-42.69,0,*55
1522011627.61,27306,10.81,72562.0,-8.95,-42.63,-42.63,0,*54
1522011628.82,27307,10.81,72558.5,-8.97,-42.51,-42.51,0,*57
1522011630.05,27308,10.81,72558.3,-8.97,-42.75,-42.57,0,*58
1522011631.31,27309,10.81,72558.8,-8.97,-42.57,-42.57,0,*59
1522011632.55,27310,10.81,72560.5,-8.95,-42.51,-42.51,0,*53
1522011633.8,27311,10.81,72556.0,-8.95,-42.51,-42.45,0,*57
1522011635.04,27312,10.81,72562.8,-8.95,-42.51,-42.63,0,*50
1522011636.28,27313,10.81,72556.3,-8.95,-42.63,-42.51,0,*51
1522011637.51,27314,10.81,72560.8,-8.93,-42.69,-42.89,0,*5F
1522011638.75,27315,10.81,72560.3,-8.95,-42.75,-42.89,0,*55
1522011639.96,27316,10.81,72560.0,-8.93,-42.51,-42.63,0,*52
1522011641.2,27317,10.81,72556.5,-8.95,-42.25,-42.25,0,*54
1522011642.47,27318,10.81,72560.0,-8.93,-42.45,-42.31,0,*5E
1522011643.68,27319,10.81,72560.3,-8.93,-42.51,-42.75,0,*5A
1522011644.92,27320,10.81,72560.0,-8.93,-42.51,-42.45,0,*53
1522011646.13,27321,10.81,72562.5,-8.93,-42.63,-42.75,0,*50
1522011647.37,27322,10.81,72564.8,-8.93,-42.51,-42.45,0,*51
1522011648.64,27323,10.81,72564.0,-8.93,-42.31,-42.31,0,*55
1522011649.92,27324,10.81,72562.8,-8.95,-42.45,-42.45,0,*54
1522011651.13,27325,10.81,72560.5,-8.93,-42.51,-42.51,0,*53
1522011652.34,27326,10.81,72562.3,-8.93,-42.51,-42.51,0,*50
1522011653.61,27327,10.81,72562.8,-8.93,-42.45,-42.31,0,*52
1522011654.85,27328,10.81,72556.8,-8.93,-42.31,-42.25,0,*5B
1522011656.06,27329,10.81,72560.8,-8.93,-42.25,-42.13,0,*5A
1522011657.35,27330,10.81,72564.5,-8.91,-42.19,-42.19,0,*55
1522011658.61,27331,10.81,72566.3,-8.91,-42.25,-42.19,0,*5B
1522011659.87,27332,10.81,72564.3,-8.91,-42.25,-42.19,0,*58
1522011661.13,27333,10.81,72566.5,-8.91,-42.25,-42.19,0,*59
1522011662.4,27334,10.81,72568.0,-8.89,-42.31,-42.31,0,*58
1522011663.61,27335,10.81,72568.5,-8.89,-42.37,-42.37,0,*59
1522011664.82,27336,10.81,72564.8,-8.89,-42.37,-42.37,0,*5A
1522011666.02,27337,10.81,72566.3,-8.89,-42.37,-42.37,0,*5B
1522011667.24,27338,10.81,72572.5,-8.89,-42.51,-42.51,0,*54
1522011668.47,27339,10.81,72568.5,-8.89,-42.57,-42.51,0,*53
1522011669.68,27340,10.81,72566.3,-8.89,-42.63,-42.63,0,*5B
1522011670.92,27341,10.81,72570.3,-8.87,-42.63,-42.75,0,*53
1522011672.14,27342,10.81,72570.5,-8.89,-42.63,-42.75,0,*5E
1522011673.37,27343,10.81,72574.8,-8.89,-42.63,-42.83,0,*56
1522011674.6,27344,10.81,72572.0,-8.89,-42.75,-42.83,0,*56
1522011675.86,27345,10.81,72570.5,-8.89,-42.83,-42.83,0,*5E
1522011677.12,27346,10.81,72574.0,-8.89,-42.83,-42.83,0,*5D
1522011678.35,27347,10.81,72568.8,-8.89,-42.75,-42.83,0,*55
1522011679.62,27348,10.81,72568.8,-8.89,-42.95,-42.83,0,*54
1522011680.87,27349,10.81,72572.3,-8.91,-42.83,-42.89,0,*51
1522011682.13,27350,10.81,72568.5,-8.89,-42.83,-42.83,0,*5A
1522011683.36,27351,10.81,72574.0,-8.91,-42.89,-42.89,0,*52
1522011684.63,27352,10.81,72570.0,-8.89,-42.95,-42.95,0,*58
1522011685.9,27353,10.81,72572.3,-8.89,-42.95,-42.95,0,*59
1522011687.15,27354,10.81,72568.5,-8.89,-43.01,-42.95,0,*52
1522011688.4,27355,10.81,72574.0,-8.91,-43.21,-43.01,0,*54
1522011689.65,27356,10.81,72570.8,-8.89,-43.01,-42.95,0,*50
1522011690.92,27357,10.81,72568.8,-8.91,-43.21,-43.09,0,*5E
1522011692.2,27358,10.81,72568.8,-8.91,-43.21,-43.21,0,*5B
1522011693.49,27359,10.81,72570.5,-8.91,-43.09,-43.09,0,*5A
1522011694.75,27360,10.81,72572.8,-8.91,-43.09,-43.01,0,*58
1522011695.98,27361,10.81,72574.8,-8.93,-43.15,-43.09,0,*5E
1522011697.22,27362,10.81,72574.0,-8.93,-43.29,-43.35,0,*5D
1522011698.46,27363,10.81,72574.0,-8.93,-43.35,-43.29,0,*5C
1522011699.67,27364,10.81,72572.0,-8.93,-43.35,-43.49,0,*5D
1522011700.91,27365,10.81,72574.5,-8.93,-43.49,-43.55,0,*5A
1522011702.15,27366,10.81,72576.3,-8.95,-43.49,-43.35,0,*59
1522011703.39,27367,10.81,72572.0,-8.95,-43.35,-43.35,0,*53
1522011704.62,27368,10.81,72572.8,-8.95,-43.49,-43.49,0,*5C
1522011705.91,27369,10.81,72574.0,-8.95,-43.55,-43.55,0,*5D
1522011707.17,27370,10.81,72574.3,-8.95,-43.67,-43.75,0,*56
1522011708.4,27371,10.81,72570.0,-8.95,-43.75,-43.87,0,*59
1522011709.61,27372,10.81,72568.0,-8.93,-43.75,-43.87,0,*5C
1522011710.88,27373,10.81,72568.3,-8.95,-43.67,-43.95,0,*5B
1522011712.12,27374,10.81,72570.3,-8.99,-43.75,-43.95,0,*53
1522011713.35,27375,10.81,72572.0,-8.97,-43.75,-43.81,0,*59
1522011714.61,27376,10.81,72570.8,-8.99,-43.55,-43.75,0,*5D
1522011715.87,27377,10.81,72572.8,-8.99,-43.55,-43.75,0,*5C
1522011717.13,27378,10.81,72570.3,-8.99,-43.61,-43.55,0,*56
1522011718.42,27379,10.81,72570.0,-8.99,-43.55,-43.55,0,*50
1522011719.67,27380,10.81,72568.0,-9.03,-43.61,-43.61,0,*54
1522011720.91,27381,10.81,72572.8,-9.03,-43.61,-43.61,0,*55
1522011722.15,27382,10.81,72576.0,-9.03,-43.61,-43.49,0,*5C
1522011723.4,27383,10.81,72568.5,-9.03,-43.61,-43.61,0,*57
1522011724.67,27384,10.81,72564.3,-9.03,-43.61,-43.67,0,*56
1522011725.96,27385,10.81,72566.0,-9.03,-43.67,-43.67,0,*51
1522011727.23,27386,10.81,72564.5,-9.05,-43.67,-43.67,0,*54
1522011728.5,27387,10.81,72562.3,-9.05,-43.67,-43.67,0,*55
1522011729.77,27388,10.81,72564.8,-9.05,-43.67,-43.67,0,*5A
1522011731.01,27389,10.81,72562.8,-9.05,-43.61,-43.67,0,*5D
1522011732.26,27390,10.81,72564.0,-9.05,-43.61,-43.67,0,*55
1522011733.51,27391,10.81,72562.5,-9.05,-43.61,-43.67,0,*54
1522011734.73,27392,10.81,72560.8,-9.05,-43.49,-43.61,0,*5B
1522011736.0,27393,10.81,72562.0,-9.09,-43.55,-43.67,0,*5D
1522011737.26,27394,10.81,72562.0,-9.07,-43.55,-43.49,0,*58
1522011738.53,27395,10.81,72564.8,-9.09,-43.67,-43.55,0,*5B
1522011739.77,27396,10.81,72562.3,-9.09,-43.67,-43.49,0,*55
1522011741.04,27397,10.81,72562.5,-9.09,-43.55,-43.55,0,*58
1522011742.31,27398,10.81,72560.8,-9.07,-43.49,-43.55,0,*54
1522011743.55,27399,10.81,72562.3,-9.09,-43.55,-43.49,0,*5B
1522011744.82,27400,10.81,72562.3,-9.07,-43.55,-43.35,0,*59
1522011746.06,27401,10.81,72558.5,-9.09,-43.35,-43.29,0,*5D
1522011747.32,27402,10.81,72558.5,-9.09,-43.29,-43.29,0,*53
1522011748.56,27403,10.81,72560.5,-9.09,-43.35,-43.29,0,*5F
1522011749.85,27404,10.81,72566.3,-9.07,-43.29,-43.29,0,*5B
1522011751.09,27405,10.81,72560.0,-9.09,-43.29,-43.35,0,*59
1522011752.34,27406,10.81,72560.8,-9.11,-43.41,-43.35,0,*5D
1522011753.59,27407,10.81,72560.0,-9.11,-43.41,-43.41,0,*5F
1522011754.83,27408,10.81,72562.5,-9.11,-43.35,-43.35,0,*50
1522011756.1,27409,10.81,72566.0,-9.11,-43.21,-43.35,0,*54
1522011757.32,27410,10.81,72562.8,-9.13,-43.41,-43.35,0,*58
1522011758.56,27411,10.81,72560.0,-9.09,-43.35,-43.29,0,*5C
1522011759.78,27412,10.81,72562.3,-9.13,-43.35,-43.41,0,*5A
1522011761.02,27413,10.81,72564.3,-9.11,-43.41,-43.61,0,*58
1522011762.32,27414,10.81,72558.8,-9.11,-43.55,-43.55,0,*5D
1522011763.56,27415,10.81,72566.0,-9.11,-43.35,-43.35,0,*5C
1522011764.85,27416,10.81,72562.3,-9.11,-43.21,-43.21,0,*5F
1522011766.09,27417,10.81,72562.5,-9.11,-43.35,-43.35,0,*5E
1522011767.33,27418,10.81,72556.5,-9.13,-43.55,-43.35,0,*55
1522011768.6,27419,10.81,72560.0,-9.11,-43.55,-43.41,0,*55
1522011769.88,27420,10.81,72562.0,-9.11,-43.61,-43.55,0,*5D
1522011771.14,27421,10.81,72562.8,-9.13,-43.55,-43.55,0,*59
1522011772.39,27422,10.81,72562.3,-9.13,-43.55,-43.35,0,*5C
1522011773.63,27423,10.81,72560.0,-9.13,-43.41,-43.55,0,*5E
1522011774.88,27424,10.81,72560.5,-9.13,-43.41,-43.55,0,*59
1522011776.14,27425,10.81,72560.5,-9.13,-43.55,-43.55,0,*5D
1522011777.41,27426,10.81,72564.3,-9.13,-43.55,-43.55,0,*5E
1522011778.68,27427,10.81,72558.5,-9.13,-43.55,-43.55,0,*5F
1522011779.9,27428,10.81,72562.3,-9.13,-43.61,-43.61,0,*50
1522011781.15,27429,10.81,72562.8,-9.13,-43.61,-43.55,0,*56
1522011782.41,27430,10.81,72562.0,-9.15,-43.67,-43.61,0,*59
1522011783.7,27431,10.81,72564.8,-9.15,-43.67,-43.67,0,*5E
1522011785.0,27432,10.81,72564.0,-9.17,-43.67,-43.67,0,*5F
1522011786.26,27433,10.81,72566.5,-9.17,-43.81,-43.61,0,*50
1522011787.54,27434,10.81,72560.3,-9.15,-43.81,-43.81,0,*5B
1522011788.84,27435,10.81,72566.5,-9.17,-43.81,-43.67,0,*50
1522011790.07,27436,10.81,72560.0,-9.17,-43.87,-43.87,0,*5B
1522011791.36,27437,10.75,72558.8,-9.17,-43.67,-43.67,0,*5A
1522011792.65,27438,10.81,72562.5,-9.17,-43.81,-43.67,0,*5D
1522011793.94,27439,10.81,72562.8,-9.17,-43.81,-43.81,0,*54
1522011795.18,27440,10.81,72562.3,-9.17,-43.61,-43.49,0,*50
1522011796.45,27441,10.81,72562.8,-9.19,-43.67,-43.55,0,*54
1522011797.72,27442,10.81,72556.0,-9.19,-43.67,-43.67,0,*56
1522011798.94,27443,10.81,72560.5,-9.19,-43.75,-43.75,0,*57
1522011800.21,27444,10.81,72562.0,-9.19,-43.67,-43.67,0,*50
1522011801.48,27445,10.81,72556.5,-9.19,-43.55,-43.67,0,*50
1522011802.77,27446,10.75,72558.0,-9.21,-43.55,-43.55,0,*59
1522011804.06,27447,10.75,72552.3,-9.21,-43.67,-43.67,0,*58
1522011805.36,27448,10.81,72560.5,-9.21,-43.67,-43.55,0,*56
1522011806.65,27449,10.81,72558.3,-9.21,-43.67,-43.55,0,*57
1522011807.92,27450,10.75,72556.3,-9.21,-43.55,-43.49,0,*53
1522011809.21,27451,10.81,72558.0,-9.21,-43.67,-43.55,0,*5E
1522011810.48,27452,10.81,72560.3,-9.21,-43.49,-43.55,0,*51
1522011811.72,27453,10.81,72558.8,-9.21,-43.49,-43.49,0,*5D
1522011812.96,27454,10.75,72558.5,-9.21,-43.49,-43.49,0,*5A
1522011814.2,27455,10.81,72556.0,-9.21,-43.49,-43.49,0,*5B
1522011815.44,27456,10.81,72556.8,-9.21,-43.35,-43.49,0,*53
1522011816.66,27457,10.81,72556.3,-9.23,-43.35,-43.41,0,*58
1522011817.9,27458,10.81,72556.5,-9.21,-43.35,-43.35,0,*56
1522011819.18,27459,10.75,72556.0,-9.21,-43.29,-43.29,0,*57
1522011820.47,27460,10.81,72556.5,-9.21,-43.29,-43.29,0,*5D
1522011821.76,27461,10.81,72558.3,-9.21,-43.29,-43.29,0,*5C
1522011823.0,27462,10.81,72554.3,-9.23,-43.29,-43.41,0,*53
1522011824.24,27463,10.81,72552.8,-9.21,-43.35,-43.35,0,*5E
1522011825.51,27464,10.81,72552.8,-9.21,-43.29,-43.35,0,*54
1522011826.72,27465,10.81,72554.3,-9.23,-43.35,-43.41,0,*59
1522011827.94,27466,10.81,72550.0,-9.23,-43.35,-43.41,0,*5A
1522011829.15,27467,10.81,72554.0,-9.23,-43.41,-43.41,0,*58
1522011830.36,27468,10.81,72558.5,-9.23,-43.35,-43.35,0,*57
1522011831.6,27469,10.81,72558.8,-9.23,-43.21,-43.35,0,*53
1522011832.87,27470,10.75,72554.3,-9.23,-43.09,-42.95,0,*5A
1522011834.12,27471,10.81,72556.5,-9.23,-43.21,-43.21,0,*5F
1522011835.33,27472,10.75,72548.8,-9.23,-43.35,-43.41,0,*5F
1522011836.55,27473,10.81,72558.0,-9.23,-43.35,-43.41,0,*5E
1522011837.79,27474,10.81,72554.3,-9.21,-43.15,-43.35,0,*5A
1522011839.02,27475,10.81,72554.8,-9.23,-43.15,-43.21,0,*5C
1522011840.28,27476,10.81,72556.5,-9.23,-43.09,-43.09,0,*58
1522011841.55,27477,10.75,72554.3,-9.23,-42.95,-42.95,0,*59
1522011842.79,27478,10.81,72554.8,-9.23,-42.75,-42.69,0,*5B
1522011844.06,27479,10.81,72556.5,-9.21,-42.83,-42.63,0,*5B
1522011845.32,27480,10.81,72552.5,-9.21,-42.83,-42.63,0,*5D
1522011846.56,27481,10.81,72558.0,-9.21,-42.63,-42.51,0,*53
1522011847.8,27482,10.81,72554.0,-9.21,-42.63,-42.51,0,*50
1522011849.04,27483,10.81,72558.0,-9.19,-42.63,-42.45,0,*5F
1522011850.26,27484,10.81,72556.5,-9.19,-42.63,-42.63,0,*5C
1522011851.49,27485,10.81,72556.5,-9.19,-42.51,-42.45,0,*58
1522011852.75,27486,10.75,72556.3,-9.21,-42.63,-42.45,0,*51
1522011853.97,27487,10.81,72554.8,-9.19,-42.63,-42.51,0,*5E
1522011855.23,27488,10.81,72556.8,-9.17,-42.45,-42.37,0,*5B
1522011856.49,27489,10.81,72556.0,-9.17,-42.45,-42.37,0,*5A
1522011857.71,27490,10.81,72560.8,-9.19,-42.51,-42.51,0,*59
1522011858.93,27491,10.81,72558.8,-9.19,-42.63,-42.51,0,*59
1522011860.19,27492,10.81,72560.3,-9.17,-42.57,-42.37,0,*53
1522011861.44,27493,10.81,72566.8,-9.17,-42.57,-42.37,0,*52
1522011862.71,27494,10.81,72566.0,-9.17,-42.45,-42.37,0,*56
1522011863.96,27495,10.81,72566.5,-9.17,-42.57,-42.37,0,*54
1522011865.22,27496,10.75,72564.5,-9.17,-42.57,-42.37,0,*57
1522011866.5,27497,10.81,72564.0,-9.15,-42.57,-42.45,0,*51
1522011867.79,27498,10.81,72564.3,-9.15,-42.57,-42.57,0,*5D
1522011869.07,27499,10.75,72560.0,-9.15,-42.57,-42.57,0,*5C
1522011870.32,27500,10.75,72566.0,-9.15,-42.63,-42.57,0,*5A
1522011871.59,27501,10.81,72568.0,-9.13,-42.69,-42.57,0,*57
1522011872.85,27502,10.81,72566.0,-9.13,-42.57,-42.69,0,*54
1522011874.11,27503,10.81,72566.0,-9.13,-42.69,-42.69,0,*58
1522011875.37,27504,10.81,72562.8,-9.13,-42.69,-42.69,0,*5F
1522011876.64,27505,10.75,72562.0,-9.15,-42.83,-42.75,0,*51
1522011877.92,27506,10.81,72564.0,-9.15,-42.83,-42.83,0,*5B
1522011879.19,27507,10.81,72560.5,-9.15,-42.83,-42.75,0,*53
1522011880.48,27508,10.81,72562.5,-9.17,-42.83,-42.83,0,*57
1522011881.74,27509,10.81,72562.5,-9.15,-42.83,-42.75,0,*5D
1522011883.03,27510,10.81,72564.3,-9.15,-42.83,-42.95,0,*5B
1522011884.31,27511,10.81,72562.0,-9.15,-43.01,-42.95,0,*51
1522011885.61,27512,10.75,72562.5,-9.15,-42.95,-42.95,0,*5E
1522011886.89,27513,10.75,72556.3,-9.15,-42.83,-42.83,0,*5F
1522011888.19,27514,10.81,72562.8,-9.15,-42.95,-42.95,0,*58
1522011889.49,27515,10.75,72560.5,-9.15,-42.95,-43.09,0,*5D
1522011890.75,27516,10.81,72560.3,-9.15,-43.41,-43.29,0,*54
1522011892.04,27517,10.75,72558.0,-9.15,-43.29,-43.29,0,*5B
1522011893.33,27518,10.75,72554.5,-9.17,-43.29,-43.29,0,*56
1522011894.6,27519,10.81,72556.8,-9.17,-43.29,-43.41,0,*59
1522011895.86,27520,10.75,72554.8,-9.17,-43.21,-43.41,0,*5B
1522011897.15,27521,10.75,72558.0,-9.17,-43.29,-43.29,0,*5C
1522011898.42,27522,10.75,72558.5,-9.17,-43.41,-43.29,0,*51
1522011899.68,27523,10.81,72556.8,-9.17,-43.49,-43.29,0,*58
1522011900.93,27524,10.75,72552.5,-9.17,-43.41,-43.41,0,*59
1522011902.17,27525,10.81,72556.5,-9.17,-43.41,-43.49,0,*50
1522011903.42,27526,10.81,72554.5,-9.17,-43.49,-43.41,0,*53
1522011904.66,27527,10.81,72558.0,-9.17,-43.49,-43.49,0,*5A
1522011905.93,27528,10.75,72558.0,-9.21,-43.49,-43.55,0,*5D
1522011907.2,27529,10.81,72562.5,-9.19,-43.55,-43.67,0,*5B
1522011908.44,27530,10.75,72556.0,-9.21,-43.49,-43.49,0,*59
1522011909.69,27531,10.75,72556.5,-9.19,-43.35,-43.55,0,*55
1522011910.92,27532,10.81,72562.5,-9.21,-43.35,-43.49,0,*50
1522011912.17,27533,10.81,72558.5,-9.21,-43.49,-43.49,0,*5A
1522011913.41,27534,10.75,72556.5,-9.21,-43.49,-43.49,0,*5D
1522011914.65,27535,10.75,72560.8,-9.21,-43.49,-43.49,0,*5C
1522011915.94,27536,10.75,72560.0,-9.21,-43.55,-43.55,0,*5F
1522011917.21,27537,10.81,72566.3,-9.21,-43.55,-43.75,0,*5C
1522011918.48,27538,10.81,72562.8,-9.21,-43.75,-43.67,0,*52
1522011919.69,27539,10.81,72568.0,-9.23,-43.75,-43.75,0,*52
1522011920.93,27540,10.81,72566.0,-9.23,-43.81,-43.61,0,*52
1522011922.15,27541,10.81,72562.5,-9.27,-43.61,-43.75,0,*5C
1522011923.36,27542,10.75,72558.0,-9.23,-43.61,-43.75,0,*5B
1522011924.59,27543,10.75,72562.3,-9.23,-43.75,-43.81,0,*54
1522011925.81,27544,10.81,72562.5,-9.23,-43.75,-43.75,0,*58
1522011927.03,27545,10.81,72564.3,-9.27,-43.75,-43.75,0,*5D
1522011928.25,27546,10.81,72568.3,-9.27,-43.61,-43.75,0,*5B
1522011929.46,27547,10.75,72564.0,-9.23,-43.75,-43.75,0,*5B
1522011930.7,27548,10.75,72566.5,-9.27,-43.75,-43.81,0,*5B
1522011931.92,27549,10.75,72564.8,-9.27,-43.75,-43.75,0,*51
1522011933.14,27550,10.75,72564.3,-9.27,-43.75,-43.75,0,*59
1522011934.36,27551,10.75,72568.0,-9.27,-43.75,-43.75,0,*58
1522011935.58,27552,10.75,72564.5,-9.27,-43.75,-43.75,0,*5B
1522011936.86,27553,10.75,72564.0,-9.29,-43.81,-43.81,0,*54
1522011938.08,27554,10.81,72568.5,-9.31,-43.61,-43.61,0,*5A
1522011939.38,27555,10.81,72564.5,-9.29,-43.81,-43.67,0,*5A
1522011940.64,27556,10.75,72564.8,-9.31,-43.81,-43.81,0,*58
1522011941.86,27557,10.81,72570.5,-9.31,-43.61,-43.61,0,*59
1522011943.08,27558,10.75,72570.5,-9.31,-43.41,-43.49,0,*5E
1522011944.33,27559,10.75,72570.8,-9.29,-43.49,-43.49,0,*5E
1522011945.55,27560,10.81,72570.5,-9.31,-43.61,-43.49,0,*57
1522011946.8,27561,10.75,72564.5,-9.31,-43.61,-43.67,0,*5A
1522011948.04,27562,10.75,72566.3,-9.31,-43.81,-43.61,0,*51
1522011949.29,27563,10.81,72566.8,-9.31,-43.67,-43.61,0,*58
1522011950.56,27564,10.81,72568.8,-9.31,-43.67,-43.67,0,*59
1522011951.82,27565,10.81,72566.8,-9.31,-43.67,-43.81,0,*50
1522011953.08,27566,10.75,72566.0,-9.31,-43.81,-43.81,0,*5B
1522011954.31,27567,10.75,72566.8,-9.33,-43.87,-43.87,0,*58
1522011955.54,27568,10.75,72566.3,-9.33,-43.95,-43.87,0,*54
1522011956.78,27569,10.75,72564.8,-9.33,-43.95,-43.87,0,*55
1522011958.01,27570,10.75,72564.8,-9.33,-43.87,-43.87,0,*5E
1522011959.23,27571,10.75,72570.3,-9.35,-43.87,-43.75,0,*54
1522011960.44,27572,10.75,72566.8,-9.35,-43.75,-43.87,0,*57
1522011961.7,27573,10.75,72564.5,-9.37,-43.95,-43.81,0,*5C
1522011962.92,27574,10.75,72568.5,-9.35,-43.75,-43.75,0,*5C
1522011964.14,27575,10.75,72562.8,-9.35,-43.75,-43.87,0,*50
1522011965.36,27576,10.75,72562.3,-9.35,-43.75,-43.75,0,*5E
1522011966.58,27577,10.75,72562.0,-9.35,-43.75,-43.75,0,*5F
1522011967.82,27578,10.75,72558.8,-9.37,-43.75,-43.75,0,*52
1522011969.09,27579,10.75,72560.3,-9.37,-43.81,-43.75,0,*58
1522011970.3,27580,10.75,72562.0,-9.39,-43.75,-43.75,0,*5B
1522011971.57,27581,10.75,72560.3,-9.37,-43.75,-43.81,0,*5F
1522011972.81,27582,10.75,72558.8,-9.37,-43.75,-43.75,0,*57
1522011974.06,27583,10.75,72564.0,-9.37,-43.61,-43.75,0,*53
1522011975.28,27584,10.75,72562.3,-9.39,-43.75,-43.75,0,*5F
1522011976.52,27585,10.75,72558.3,-9.37,-43.75,-43.75,0,*50
1522011977.76,27586,10.75,72558.5,-9.39,-43.81,-43.75,0,*56
1522011978.98,27587,10.75,72556.5,-9.39,-43.61,-43.75,0,*59
1522011980.27,27588,10.75,72558.3,-9.41,-43.81,-43.81,0,*5C
1522011981.53,27589,10.75,72560.5,-9.41,-43.81,-43.87,0,*5B
1522011982.79,27590,10.75,72552.0,-9.43,-43.81,-43.81,0,*57
1522011984.08,27591,10.75,72556.8,-9.41,-43.81,-43.81,0,*54
1522011985.31,27592,10.75,72554.3,-9.41,-43.87,-43.87,0,*57
1522011986.6,27593,10.75,72556.3,-9.41,-43.67,-43.81,0,*5E
1522011987.89,27594,10.75,72558.5,-9.41,-43.81,-43.81,0,*51
1522011989.18,27595,10.75,72548.5,-9.41,-43.67,-43.81,0,*58
1522011990.45,27596,10.75,72558.0,-9.41,-43.61,-43.67,0,*55
1522011991.72,27597,10.75,72554.5,-9.43,-43.67,-43.67,0,*50
1522011992.98,27598,10.75,72560.3,-9.43,-43.67,-43.81,0,*57
1522011994.23,27599,10.75,72552.3,-9.43,-43.61,-43.81,0,*50
1522011995.5,27600,10.75,72558.0,-9.41,-43.61,-43.67,0,*59
1522011996.77,27601,10.75,72560.5,-9.43,-43.67,-43.67,0,*5C
1522011998.03,27602,10.75,72558.0,-9.43,-43.61,-43.67,0,*59
1522011999.29,27603,10.75,72554.8,-9.43,-43.67,-43.81,0,*56
1522012000.55,27604,10.75,72558.5,-9.43,-43.67,-43.81,0,*51
1522012001.82,27605,10.75,72556.8,-9.43,-43.67,-43.67,0,*58
1522012003.04,27606,10.75,72556.0,-9.43,-43.61,-43.61,0,*5B
1522012004.27,27607,10.75,72560.3,-9.43,-43.41,-43.61,0,*58
1522012005.49,27608,10.75,72564.3,-9.43,-43.41,-43.61,0,*57
1522012006.77,27609,10.75,72560.3,-9.45,-43.21,-43.21,0,*52
1522012008.03,27610,10.75,72558.0,-9.45,-42.89,-42.83,0,*50
1522012009.31,27611,10.75,72554.3,-9.41,-42.83,-42.63,0,*51
1522012010.52,27612,10.75,72562.8,-9.43,-43.15,-43.01,0,*5B
1522012011.82,27613,10.75,72558.8,-9.41,-42.95,-42.83,0,*5A
1522012013.04,27614,10.75,72558.8,-9.43,-43.01,-43.01,0,*58
1522012014.29,27615,10.75,72558.8,-9.43,-42.95,-42.75,0,*57
1522012015.57,27616,10.75,72552.8,-9.41,-42.95,-42.75,0,*56
1522012016.84,27617,10.75,72562.5,-9.41,-43.01,-42.83,0,*52
1522012018.11,27618,10.75,72554.5,-9.43,-42.95,-42.83,0,*53
1522012019.39,27619,10.75,72560.3,-9.41,-42.83,-42.75,0,*5E
1522012020.69,27620,10.75,72560.0,-9.41,-42.95,-42.95,0,*5D
1522012021.94,27621,10.75,72560.3,-9.43,-42.83,-42.63,0,*50
1522012023.21,27622,10.75,72556.5,-9.41,-42.95,-42.75,0,*51
1522012024.45,27623,10.75,72566.3,-9.39,-42.75,-42.57,0,*51
1522012025.7,27624,10.75,72560.3,-9.41,-42.75,-42.63,0,*5E
1522012026.95,27625,10.75,72556.8,-9.41,-42.75,-42.63,0,*5F
1522012028.25,27626,10.75,72556.3,-9.41,-42.95,-42.95,0,*5B
1522012029.52,27627,10.75,72562.8,-9.39,-42.95,-42.69,0,*56
1522012030.76,27628,10.75,72562.8,-9.39,-42.75,-42.57,0,*5A
1522012032.02,27629,10.75,72558.5,-9.39,-42.69,-42.69,0,*5B
1522012033.28,27630,10.75,72556.0,-9.39,-42.57,-42.57,0,*53
1522012034.52,27631,10.75,72558.3,-9.37,-42.75,-42.51,0,*5A
1522012035.79,27632,10.75,72554.3,-9.37,-42.69,-42.51,0,*54
1522012037.02,27633,10.75,72552.3,-9.39,-42.89,-42.57,0,*53
1522012038.26,27634,10.75,72552.5,-9.39,-42.75,-42.69,0,*5A
1522012039.53,27635,10.75,72556.5,-9.37,-42.75,-42.69,0,*55
1522012040.77,27636,10.75,72556.5,-9.39,-42.89,-42.57,0,*56
1522012042.05,27637,10.75,72556.5,-9.37,-42.57,-42.57,0,*5A
1522012043.32,27638,10.75,72554.0,-9.35,-42.83,-42.69,0,*53
1522012044.58,27639,10.75,72552.0,-9.37,-42.89,-42.69,0,*5A
1522012045.85,27640,10.75,72556.8,-9.37,-42.75,-42.57,0,*5A
1522012047.12,27641,10.75,72552.8,-9.37,-42.69,-42.51,0,*50
1522012048.36,27642,10.75,72558.3,-9.35,-42.63,-42.45,0,*5E
1522012049.6,27643,10.75,72558.5,-9.35,-42.51,-42.45,0,*5E
1522012050.83,27644,10.75,72558.0,-9.35,-42.63,-42.45,0,*58
1522012052.05,27645,10.75,72560.3,-9.35,-42.63,-42.51,0,*5C
1522012053.34,27646,10.75,72560.8,-9.33,-42.83,-42.69,0,*5C
1522012054.56,27647,10.75,72560.3,-9.35,-43.01,-42.89,0,*5E
1522012055.84,27648,10.75,72558.8,-9.33,-43.21,-43.21,0,*56
1522012057.07,27649,10.75,72558.3,-9.35,-43.01,-43.01,0,*51
1522012058.3,27650,10.75,72558.8,-9.33,-42.89,-42.89,0,*5F
1522012059.57,27651,10.75,72558.3,-9.35,-43.09,-43.21,0,*52
1522012060.84,27652,10.75,72556.0,-9.35,-43.09,-43.09,0,*5B
1522012062.06,27653,10.75,72562.0,-9.35,-42.89,-42.89,0,*5A
1522012063.3,27654,10.75,72558.3,-9.35,-42.89,-42.83,0,*57
1522012064.52,27655,10.75,72558.0,-9.35,-43.01,-43.01,0,*5C
1522012065.73,27656,10.75,72558.5,-9.35,-42.89,-42.89,0,*5F
1522012067.0,27657,10.75,72556.0,-9.35,-42.83,-42.69,0,*5A
1522012068.24,27658,10.75,72556.3,-9.33,-42.89,-43.01,0,*56
1522012069.51,27659,10.75,72558.0,-9.35,-43.09,-43.09,0,*50
1522012070.73,27660,10.75,72554.3,-9.35,-43.01,-43.01,0,*5A
1522012071.97,27661,10.75,72554.8,-9.33,-42.89,-42.89,0,*5D
1522012073.22,27662,10.75,72558.3,-9.33,-43.01,-43.01,0,*5E
1522012074.44,27663,10.75,72552.0,-9.35,-43.01,-43.01,0,*59
1522012075.66,27664,10.75,72552.8,-9.35,-42.89,-43.01,0,*5F
1522012076.88,27665,10.75,72554.3,-9.35,-43.01,-43.01,0,*5F
1522012078.12,27666,10.75,72554.3,-9.35,-42.89,-42.83,0,*56
1522012079.37,27667,10.75,72558.5,-9.35,-43.01,-43.09,0,*55
1522012080.63,27668,10.75,72554.5,-9.35,-43.21,-43.09,0,*58
1522012081.9,27669,10.75,72558.3,-9.33,-43.09,-43.01,0,*5D
1522012083.15,27670,10.75,72558.8,-9.33,-43.01,-42.89,0,*5C
1522012084.4,27671,10.75,72558.8,-9.35,-43.01,-43.09,0,*52
1522012085.62,27672,10.75,72556.5,-9.35,-43.01,-43.01,0,*59
1522012086.91,27673,10.75,72552.3,-9.33,-43.21,-43.21,0,*5E
1522012088.2,27674,10.75,72554.5,-9.33,-43.09,-43.21,0,*53
1522012089.47,27675,10.75,72556.3,-9.35,-43.09,-43.09,0,*5E
1522012090.76,27676,10.75,72558.3,-9.33,-43.09,-43.21,0,*51
1522012092.06,27677,10.75,72558.8,-9.33,-43.09,-43.09,0,*5A
1522012093.3,27678,10.75,72558.0,-9.35,-43.09,-43.01,0,*5B
1522012094.57,27679,10.75,72562.5,-9.35,-43.09,-43.09,0,*52
1522012095.84,27680,10.75,72558.3,-9.35,-43.21,-43.09,0,*5E
1522012097.1,27681,10.75,72558.5,-9.35,-43.21,-43.21,0,*55
1522012098.34,27682,10.75,72556.8,-9.35,-43.21,-43.35,0,*53
1522012099.58,27683,10.75,72558.3,-9.35,-43.09,-43.01,0,*5F